TimeCDT,TemperatureF,Dew PointF,Humidity,Sea Level PressureIn,VisibilityMPH,Wind Direction,Wind SpeedMPH,Gust SpeedMPH,PrecipitationIn,Events,Conditions,WindDirDegrees,DateUTC
12:13 AM,37.4,26.6,65,30.11,10.0,Calm,Calm,-,N/A,,Clear,0,2013-05-13 05:13:00
12:34 AM,39.2,24.8,56,30.11,10.0,Calm,Calm,-,N/A,,Clear,0,2013-05-13 05:34:00
12:53 AM,37.4,26.6,65,30.11,10.0,Calm,Calm,-,N/A,,Clear,0,2013-05-13 05:53:00
1:13 AM,33.8,26.6,75,30.11,10.0,Calm,Calm,-,N/A,,Clear,0,2013-05-13 06:13:00
1:34 AM,35.6,28.4,75,30.11,10.0,Calm,Calm,-,N/A,,Clear,0,2013-05-13 06:34:00
1:53 AM,33.8,28.4,81,30.11,10.0,Calm,Calm,-,N/A,,Clear,0,2013-05-13 06:53:00
2:13 AM,37.4,24.8,60,30.11,10.0,Calm,Calm,-,N/A,,Clear,0,2013-05-13 07:13:00
2:34 AM,35.6,28.4,75,30.10,10.0,Calm,Calm,-,N/A,,Clear,0,2013-05-13 07:34:00
2:53 AM,33.8,26.6,75,30.10,10.0,Calm,Calm,-,N/A,,Clear,0,2013-05-13 07:53:00
3:13 AM,33.8,28.4,81,30.09,10.0,Calm,Calm,-,N/A,,Clear,0,2013-05-13 08:13:00
3:34 AM,33.8,26.6,75,30.09,10.0,Calm,Calm,-,N/A,,Clear,0,2013-05-13 08:34:00
3:53 AM,35.6,26.6,70,30.09,10.0,Calm,Calm,-,N/A,,Clear,0,2013-05-13 08:53:00
4:14 AM,33.8,26.6,75,30.09,10.0,Calm,Calm,-,N/A,,Clear,0,2013-05-13 09:14:00
4:34 AM,35.6,26.6,70,30.08,10.0,Calm,Calm,-,N/A,,Clear,0,2013-05-13 09:34:00
4:53 AM,30.2,26.6,86,30.08,10.0,Calm,Calm,-,N/A,,Clear,0,2013-05-13 09:53:00
5:14 AM,33.8,26.6,75,30.08,10.0,Calm,Calm,-,N/A,,Clear,0,2013-05-13 10:14:00
5:34 AM,33.8,26.6,75,30.08,10.0,Calm,Calm,-,N/A,,Clear,0,2013-05-13 10:34:00
5:53 AM,33.8,28.4,81,30.08,10.0,Calm,Calm,-,N/A,,Clear,0,2013-05-13 10:53:00
6:14 AM,35.6,26.6,70,30.09,10.0,Calm,Calm,-,N/A,,Clear,0,2013-05-13 11:14:00
6:33 AM,35.6,26.6,70,30.09,10.0,Calm,Calm,-,N/A,,Clear,0,2013-05-13 11:33:00
6:53 AM,35.6,28.4,75,30.08,10.0,Calm,Calm,-,N/A,,Clear,0,2013-05-13 11:53:00
7:13 AM,35.6,30.2,81,30.09,10.0,Calm,Calm,-,N/A,,Clear,0,2013-05-13 12:13:00
7:33 AM,37.4,30.2,75,30.10,10.0,Calm,Calm,-,N/A,,Clear,0,2013-05-13 12:33:00
7:54 AM,42.8,30.2,61,30.09,10.0,Calm,Calm,-,N/A,,Clear,0,2013-05-13 12:54:00
8:13 AM,44.6,28.4,53,30.09,10.0,SE,3.5,-,N/A,,Clear,130,2013-05-13 13:13:00
8:34 AM,46.4,28.4,50,30.08,10.0,SSE,3.5,-,N/A,,Clear,150,2013-05-13 13:34:00
8:54 AM,48.2,28.4,46,30.09,10.0,SE,4.6,-,N/A,,Scattered Clouds,140,2013-05-13 13:54:00
9:13 AM,51.8,28.4,41,30.08,10.0,South,5.8,-,N/A,,Clear,180,2013-05-13 14:13:00
9:34 AM,55.4,28.4,36,30.06,10.0,South,6.9,-,N/A,,Clear,180,2013-05-13 14:34:00
9:54 AM,55.4,28.4,36,30.05,10.0,South,9.2,-,N/A,,Clear,170,2013-05-13 14:54:00
10:13 AM,57.2,26.6,31,30.04,10.0,South,10.4,-,N/A,,Clear,190,2013-05-13 15:13:00
10:34 AM,59.0,26.6,29,30.03,10.0,South,8.1,-,N/A,,Clear,170,2013-05-13 15:34:00
10:53 AM,60.8,26.6,27,30.03,10.0,South,11.5,-,N/A,,Clear,170,2013-05-13 15:53:00
11:13 AM,60.8,26.6,27,30.01,10.0,South,11.5,-,N/A,,Clear,180,2013-05-13 16:13:00
11:34 AM,60.8,28.4,29,30.01,10.0,South,11.5,-,N/A,,Clear,180,2013-05-13 16:34:00
11:53 AM,59.0,28.4,31,30.01,7.0,South,8.1,-,N/A,,Clear,180,2013-05-13 16:53:00
12:14 PM,57.2,30.2,36,30.00,10.0,South,11.5,16.1,N/A,Rain,Light Rain,180,2013-05-13 17:14:00
12:34 PM,59.0,30.2,34,29.98,10.0,South,11.5,-,N/A,,Mostly Cloudy,170,2013-05-13 17:34:00
12:53 PM,59.0,30.2,34,29.97,10.0,SSE,12.7,17.3,N/A,,Mostly Cloudy,160,2013-05-13 17:53:00
1:14 PM,57.2,33.8,41,29.96,10.0,SSE,11.5,-,N/A,Rain,Light Rain,160,2013-05-13 18:14:00
1:34 PM,60.8,33.8,36,29.94,10.0,SSE,11.5,17.3,N/A,,Mostly Cloudy,160,2013-05-13 18:34:00
1:53 PM,60.8,33.8,36,29.93,10.0,SSE,15.0,23.0,N/A,,Mostly Cloudy,160,2013-05-13 18:53:00
2:14 PM,62.6,35.6,37,29.90,10.0,SSE,18.4,-,N/A,,Scattered Clouds,150,2013-05-13 19:14:00
2:33 PM,64.4,35.6,34,29.91,10.0,SSE,15.0,23.0,N/A,,Clear,150,2013-05-13 19:33:00
3:33 PM,66.2,39.2,37,29.88,10.0,South,17.3,24.2,N/A,,Clear,170,2013-05-13 20:33:00
3:53 PM,66.2,37.4,35,29.86,10.0,SSE,16.1,23.0,N/A,,Clear,160,2013-05-13 20:53:00
4:14 PM,66.2,37.4,35,29.85,10.0,South,17.3,21.9,N/A,,Clear,170,2013-05-13 21:14:00
4:33 PM,68.0,39.2,35,29.84,10.0,South,18.4,25.3,N/A,,Clear,170,2013-05-13 21:33:00
4:54 PM,68.0,39.2,35,29.82,10.0,South,16.1,23.0,N/A,,Clear,180,2013-05-13 21:54:00
5:14 PM,69.8,39.2,33,29.82,10.0,South,16.1,23.0,N/A,,Clear,180,2013-05-13 22:14:00
5:33 PM,69.8,41.0,35,29.81,10.0,South,16.1,23.0,N/A,,Clear,170,2013-05-13 22:33:00
5:54 PM,69.8,42.8,38,29.79,10.0,South,12.7,23.0,N/A,,Clear,170,2013-05-13 22:54:00
6:33 PM,71.6,42.8,35,29.75,10.0,South,17.3,21.9,N/A,,Clear,170,2013-05-13 23:33:00
7:13 PM,69.8,44.6,40,29.74,10.0,SSE,11.5,17.3,N/A,,Clear,160,2013-05-14 00:13:00
7:33 PM,69.8,44.6,40,29.72,10.0,SSE,11.5,-,N/A,,Clear,160,2013-05-14 00:33:00
7:54 PM,68.0,46.4,46,29.72,10.0,SSE,9.2,-,N/A,,Clear,150,2013-05-14 00:54:00
8:13 PM,68.0,46.4,46,29.71,10.0,SSE,8.1,-,N/A,,Clear,160,2013-05-14 01:13:00
8:33 PM,68.0,46.4,46,29.70,10.0,SSE,10.4,16.1,N/A,,Clear,160,2013-05-14 01:33:00
8:54 PM,66.2,46.4,49,29.69,10.0,South,10.4,16.1,N/A,,Clear,170,2013-05-14 01:54:00
9:13 PM,66.2,46.4,49,29.69,10.0,South,8.1,-,N/A,,Clear,170,2013-05-14 02:13:00
9:33 PM,66.2,46.4,49,29.68,10.0,South,10.4,16.1,N/A,,Clear,170,2013-05-14 02:33:00
9:54 PM,66.2,46.4,49,29.68,10.0,South,13.8,20.7,N/A,,Clear,180,2013-05-14 02:54:00
10:13 PM,66.2,46.4,49,29.67,10.0,South,15.0,23.0,N/A,,Clear,190,2013-05-14 03:13:00
10:33 PM,64.4,46.4,52,29.67,10.0,South,13.8,20.7,N/A,,Clear,190,2013-05-14 03:33:00
10:54 PM,64.4,46.4,52,29.66,10.0,South,16.1,21.9,N/A,,Clear,190,2013-05-14 03:54:00
11:13 PM,64.4,46.4,52,29.66,10.0,SSW,8.1,17.3,N/A,,Clear,200,2013-05-14 04:13:00
11:33 PM,64.4,46.4,52,29.66,10.0,SSW,6.9,16.1,N/A,,Clear,200,2013-05-14 04:33:00
11:54 PM,64.4,46.4,52,29.66,10.0,WSW,8.1,-,N/A,,Clear,240,2013-05-14 04:54:00